| time (UTC) | temp F | wind direction | speed knots | gust knots | rain 1hr in | rain 24hr in | rain mn in | humidity % | barometer mb |
| 20260505004413 | 56 | 340 | 2.6 | 2.6 | 0.00 | 0.08 | 0.08 | 61 | 1009.7 |
| 20260505003910 | 56 | 333 | 1.7 | 1.7 | 0.00 | 0.08 | 0.08 | 62 | 1009.8 |
| 20260505003407 | 57 | 356 | 0.9 | 0.9 | 0.00 | 0.08 | 0.08 | 65 | 1009.7 |
| 20260505002903 | 57 | 340 | 0.0 | 0.0 | 0.00 | 0.08 | 0.08 | 63 | 1009.5 |
| 20260505002400 | 57 | 15 | 0.9 | 0.9 | 0.00 | 0.08 | 0.08 | 64 | 1009.6 |
| 20260505001858 | 57 | 328 | 0.0 | 0.0 | 0.00 | 0.08 | 0.08 | 68 | 1009.4 |
| 20260505001355 | 57 | 273 | 0.9 | 0.9 | 0.00 | 0.08 | 0.08 | 67 | 1009.5 |
| 20260505000853 | 57 | 277 | 0.9 | 0.9 | 0.00 | 0.08 | 0.08 | 67 | 1009.4 |
| 20260505000351 | 56 | 348 | 0.0 | 0.9 | 0.00 | 0.08 | 0.08 | 70 | 1009.5 |
| 20260504235847 | 55 | 335 | 0.0 | 0.0 | 0.00 | 0.08 | 0.08 | 72 | 1009.4 |
| 20260504235344 | 56 | 344 | 0.0 | 0.0 | 0.00 | 0.08 | 0.08 | 75 | 1009.4 |
| 20260504234840 | 56 | 301 | 0.0 | 0.0 | 0.00 | 0.08 | 0.08 | 74 | 1009.4 |
| 20260504234338 | 56 | 248 | 0.0 | 0.0 | 0.00 | 0.08 | 0.08 | 73 | 1009.4 |
| 20260504233834 | 56 | 225 | 0.0 | 0.9 | 0.00 | 0.08 | 0.08 | 71 | 1009.0 |
| 20260504233330 | 55 | 197 | 0.9 | 1.7 | 0.00 | 0.08 | 0.08 | 71 | 1009.1 |
| 20260504232827 | 55 | 180 | 0.9 | 1.7 | 0.00 | 0.08 | 0.08 | 80 | 1008.9 |
| 20260504232324 | 54 | 161 | 0.0 | 0.9 | 0.00 | 0.08 | 0.08 | 81 | 1009.0 |
| 20260504231821 | 54 | 318 | 0.0 | 0.0 | 0.00 | 0.08 | 0.08 | 81 | 1009.0 |
| 20260504231317 | 53 | 28 | 0.9 | 0.9 | 0.07 | 0.08 | 0.08 | 78 | 1009.4 |
| 20260504230813 | 53 | 164 | 0.9 | 0.9 | 0.12 | 0.08 | 0.08 | 76 | 1009.3 |
| 20260504230312 | 53 | 85 | 0.0 | 0.0 | 0.17 | 0.07 | 0.07 | 73 | 1009.4 |
| 20260504225810 | 54 | 19 | 3.5 | 5.2 | 0.12 | 0.06 | 0.06 | 69 | 1009.4 |
| 20260504225306 | 56 | 331 | 2.6 | 4.3 | 0.07 | 0.04 | 0.04 | 64 | 1009.3 |
| 20260504224803 | 59 | 328 | 1.7 | 1.7 | 0.07 | 0.04 | 0.04 | 55 | 1009.0 |
| 20260504224301 | 61 | 293 | 0.9 | 0.9 | 0.00 | 0.03 | 0.03 | 48 | 1008.8 |
| 20260504223757 | 61 | 308 | 1.7 | 1.7 | 0.00 | 0.03 | 0.03 | 42 | 1008.7 |
| 20260504223252 | 62 | 358 | 4.3 | 5.2 | 0.00 | 0.03 | 0.03 | 41 | 1008.6 |
| 20260504222749 | 62 | 61 | 1.7 | 1.7 | 0.00 | 0.03 | 0.03 | 41 | 1008.3 |
| 20260504222246 | 62 | 30 | 0.9 | 1.7 | 0.00 | 0.03 | 0.03 | 41 | 1008.2 |
| 20260504221744 | 62 | 11 | 2.6 | 2.6 | 0.00 | 0.03 | 0.03 | 41 | 1008.2 |
| 20260504221241 | 62 | 27 | 4.3 | 6.1 | 0.00 | 0.03 | 0.03 | 39 | 1008.1 |
| 20260504220738 | 62 | 347 | 2.6 | 4.3 | 0.00 | 0.03 | 0.03 | 39 | 1007.6 |
| 20260504220235 | 62 | 330 | 1.7 | 4.3 | 0.00 | 0.03 | 0.03 | 43 | 1007.5 |
| 20260504215732 | 62 | 350 | 3.5 | 4.3 | 0.00 | 0.03 | 0.03 | 43 | 1007.2 |
| 20260504215228 | 62 | 14 | 0.9 | 0.9 | 0.00 | 0.03 | 0.03 | 45 | 1007.4 |
| 20260504214724 | 62 | 8 | 1.7 | 1.7 | 0.00 | 0.03 | 0.03 | 45 | 1007.5 |
| 20260504214221 | 62 | 16 | 2.6 | 4.3 | 0.00 | 0.03 | 0.03 | 44 | 1007.6 |
| 20260504213718 | 62 | 48 | 5.2 | 7.8 | 0.00 | 0.03 | 0.03 | 47 | 1008.0 |
| 20260504213214 | 63 | 57 | 1.7 | 4.3 | 0.00 | 0.03 | 0.03 | 47 | 1008.1 |
| 20260504212711 | 61 | 132 | 4.3 | 6.1 | 0.00 | 0.03 | 0.03 | 44 | 1008.8 |
| 20260504212208 | 60 | 28 | 0.9 | 0.9 | 0.00 | 0.03 | 0.03 | 50 | 1008.9 |
| 20260504211705 | 59 | 91 | 2.6 | 2.6 | 0.00 | 0.03 | 0.03 | 49 | 1008.9 |
| 20260504211201 | 58 | 18 | 0.9 | 0.9 | 0.00 | 0.03 | 0.03 | 49 | 1009.4 |
| 20260504210659 | 59 | 15 | 4.3 | 6.1 | 0.00 | 0.03 | 0.03 | 49 | 1009.4 |
| 20260504210155 | 58 | 35 | 4.3 | 7.0 | 0.00 | 0.03 | 0.03 | 52 | 1009.4 |
| 20260504205653 | 57 | 32 | 1.7 | 1.7 | 0.05 | 0.03 | 0.03 | 57 | 1009.1 |
| 20260504205150 | 58 | 43 | 3.5 | 6.1 | 0.19 | 0.03 | 0.03 | 54 | 1009.0 |
| 20260504204649 | 60 | 13 | 1.7 | 1.7 | 0.14 | 0.02 | 0.02 | 51 | 1008.9 |
| 20260504204147 | 62 | 13 | 3.5 | 6.1 | 0.00 | 0.00 | 0.00 | 39 | 1008.8 |
| 20260504203645 | 62 | 318 | 1.7 | 4.3 | 0.00 | 0.00 | 0.00 | 40 | 1008.6 |
| 20260504203143 | 62 | 341 | 5.2 | 8.7 | 0.00 | 0.00 | 0.00 | 43 | 1008.2 |
| 20260504202642 | 64 | 6 | 3.5 | 5.2 | 0.00 | 0.00 | 0.00 | 37 | 1007.6 |
| 20260504202140 | 64 | 341 | 11.3 | 15.6 | 0.00 | 0.00 | 0.00 | 33 | 1007.4 |
| 20260504201636 | 65 | 49 | 7.0 | 11.3 | 0.00 | 0.00 | 0.00 | 32 | 1007.2 |
| 20260504201134 | 68 | 7 | 10.4 | 15.6 | 0.00 | 0.00 | 0.00 | 29 | 1007.3 |
| 20260504200631 | 70 | 31 | 2.6 | 2.6 | 0.00 | 0.00 | 0.00 | 24 | 1007.2 |
| 20260504200128 | 71 | 74 | 2.6 | 5.2 | 0.00 | 0.00 | 0.00 | 24 | 1006.9 |
| 20260504195624 | 72 | 24 | 1.7 | 1.7 | 0.00 | 0.00 | 0.00 | 23 | 1007.0 |
| 20260504195120 | 72 | 12 | 0.9 | 0.9 | 0.00 | 0.00 | 0.00 | 24 | 1007.2 |
| 20260504194617 | 73 | 340 | 1.7 | 1.7 | 0.00 | 0.00 | 0.00 | 24 | 1006.8 |
| 20260504194113 | 73 | 7 | 2.6 | 4.3 | 0.00 | 0.00 | 0.00 | 25 | 1007.0 |
| 20260504193609 | 75 | 348 | 0.9 | 1.7 | 0.00 | 0.00 | 0.00 | 23 | 1007.2 |
| 20260504193108 | 75 | 15 | 3.5 | 4.3 | 0.00 | 0.00 | 0.00 | 23 | 1007.2 |
| 20260504192606 | 74 | 316 | 1.7 | 2.6 | 0.00 | 0.00 | 0.00 | 24 | 1007.3 |
| 20260504192104 | 74 | 313 | 2.6 | 4.3 | 0.00 | 0.00 | 0.00 | 24 | 1007.2 |
| 20260504191602 | 75 | 310 | 3.5 | 6.1 | 0.00 | 0.00 | 0.00 | 23 | 1007.2 |
| 20260504191057 | 74 | 236 | 3.5 | 5.2 | 0.00 | 0.00 | 0.00 | 24 | 1006.9 |
| 20260504190554 | 72 | 253 | 2.6 | 2.6 | 0.00 | 0.00 | 0.00 | 24 | 1007.3 |
| 20260504190050 | 72 | 186 | 4.3 | 6.1 | 0.00 | 0.00 | 0.00 | 24 | 1007.2 |
| 20260504185547 | 72 | 0 | 6.1 | 9.6 | 0.00 | 0.00 | 0.00 | 24 | 1007.4 |
| 20260504185043 | 73 | 333 | 6.1 | 7.8 | 0.00 | 0.00 | 0.00 | 23 | 1007.2 |
| 20260504184539 | 73 | 324 | 6.1 | 7.8 | 0.00 | 0.00 | 0.00 | 23 | 1007.4 |
| 20260504184034 | 74 | 258 | 3.5 | 5.2 | 0.00 | 0.00 | 0.00 | 23 | 1007.3 |
| 20260504183532 | 73 | 333 | 7.0 | 8.7 | 0.00 | 0.00 | 0.00 | 24 | 1007.6 |
| 20260504183030 | 73 | 334 | 6.1 | 8.7 | 0.00 | 0.00 | 0.00 | 23 | 1007.7 |
| 20260504182526 | 73 | 293 | 3.5 | 6.1 | 0.00 | 0.00 | 0.00 | 24 | 1007.5 |
| 20260504182024 | 72 | 325 | 2.6 | 2.6 | 0.00 | 0.00 | 0.00 | 24 | 1007.6 |
| 20260504181521 | 72 | 261 | 2.6 | 4.3 | 0.00 | 0.00 | 0.00 | 25 | 1007.6 |
| 20260504181019 | 72 | 306 | 2.6 | 2.6 | 0.00 | 0.00 | 0.00 | 25 | 1008.1 |
| 20260504180518 | 71 | 278 | 3.5 | 4.3 | 0.00 | 0.00 | 0.00 | 26 | 1008.2 |
| 20260504180016 | 71 | 277 | 3.5 | 4.3 | 0.00 | 0.00 | 0.00 | 26 | 1008.2 |
| 20260504175513 | 70 | 209 | 1.7 | 2.6 | 0.00 | 0.00 | 0.00 | 26 | 1008.2 |
| 20260504175010 | 69 | 282 | 5.2 | 7.8 | 0.00 | 0.00 | 0.00 | 26 | 1008.3 |
| 20260504174508 | 70 | 215 | 2.6 | 4.3 | 0.00 | 0.00 | 0.00 | 27 | 1008.3 |
| 20260504174005 | 70 | 217 | 0.9 | 0.9 | 0.00 | 0.00 | 0.00 | 27 | 1008.6 |
| 20260504173501 | 69 | 174 | 1.7 | 1.7 | 0.00 | 0.00 | 0.00 | 28 | 1008.6 |
| 20260504172959 | 68 | 254 | 1.7 | 1.7 | 0.00 | 0.00 | 0.00 | 29 | 1008.8 |
| 20260504172454 | 68 | 147 | 1.7 | 4.3 | 0.00 | 0.00 | 0.00 | 29 | 1008.3 |
| 20260504171951 | 67 | 219 | 0.9 | 0.9 | 0.00 | 0.00 | 0.00 | 29 | 1008.7 |
| 20260504171448 | 66 | 257 | 1.7 | 1.7 | 0.00 | 0.00 | 0.00 | 30 | 1008.8 |
| 20260504170945 | 66 | 224 | 0.9 | 1.7 | 0.00 | 0.00 | 0.00 | 31 | 1008.6 |
| 20260504170441 | 66 | 200 | 4.3 | 5.2 | 0.00 | 0.00 | 0.00 | 30 | 1008.8 |
| 20260504160401 | 65 | 236 | 0.9 | 1.7 | 0.00 | 0.00 | 0.00 | 30 | 1008.8 |
| 20260504150825 | 64 | 291 | 1.7 | 1.7 | 0.00 | 0.00 | 0.00 | 29 | 1008.7 |
| 20260504150322 | 64 | 129 | 1.7 | 1.7 | 0.00 | 0.00 | 0.00 | 29 | 1008.9 |
| 20260504141252 | 53 | 75 | 0.0 | 0.0 | 0.00 | 0.00 | 0.00 | 48 | 1008.9 |
| 20260504140748 | 53 | 46 | 0.0 | 0.0 | 0.00 | 0.00 | 0.00 | 50 | 1009.0 |
| 20260504140244 | 51 | 21 | 0.0 | 0.0 | 0.00 | 0.00 | 0.00 | 51 | 1009.0 |
| 20260504130713 | 45 | 16 | 0.0 | 0.0 | 0.00 | 0.00 | 0.00 | 50 | 1009.3 |
| 20260504130209 | 44 | 186 | 0.0 | 0.0 | 0.00 | 0.00 | 0.00 | 50 | 1008.9 |
| 20260504120133 | 40 | 355 | 0.0 | 0.0 | 0.00 | 0.00 | 0.00 | 58 | 1008.9 |
| 20260504110600 | 40 | 323 | 0.0 | 0.0 | 0.00 | 0.00 | 0.00 | 56 | 1009.4 |
| 20260504100522 | 40 | 135 | 0.0 | 0.0 | 0.00 | 0.00 | 0.00 | 60 | 1009.6 |
| 20260504081915 | 44 | 242 | 0.0 | 0.0 | 0.00 | 0.00 | 0.00 | 52 | 1010.1 |
| 20260504081412 | 45 | 245 | 0.0 | 0.0 | 0.00 | 0.00 | 0.00 | 51 | 1010.3 |
| 20260504080908 | 46 | 287 | 0.0 | 0.0 | 0.00 | 0.00 | 0.00 | 53 | 1010.3 |
| 20260504080405 | 46 | 285 | 0.0 | 0.0 | 0.00 | 0.00 | 0.00 | 53 | 1010.4 |
| 20260504070332 | 50 | 194 | 0.0 | 0.0 | 0.00 | 0.00 | 0.00 | 41 | 1010.8 |
| 20260504050721 | 59 | 332 | 3.5 | 4.3 | 0.00 | 0.00 | 0.00 | 34 | 1010.7 |
| 20260504050218 | 59 | 352 | 3.5 | 5.2 | 0.00 | 0.00 | 0.00 | 33 | 1010.9 |
| 20260504045715 | 59 | 11 | 4.3 | 5.2 | 0.00 | 0.00 | 0.00 | 33 | 1010.9 |
| 20260504045215 | 60 | 14 | 5.2 | 7.8 | 0.00 | 0.00 | 0.00 | 32 | 1010.8 |
| 20260504044713 | 61 | 48 | 0.0 | 0.0 | 0.00 | 0.00 | 0.00 | 30 | 1010.8 |
| 20260504044210 | 62 | 39 | 0.9 | 1.7 | 0.00 | 0.00 | 0.00 | 29 | 1010.8 |
| 20260504043707 | 62 | 296 | 1.7 | 2.6 | 0.00 | 0.00 | 0.00 | 28 | 1010.9 |
| 20260504043204 | 62 | 11 | 2.6 | 4.3 | 0.00 | 0.00 | 0.00 | 26 | 1010.8 |
| 20260504042701 | 61 | 30 | 1.7 | 1.7 | 0.00 | 0.00 | 0.00 | 29 | 1010.4 |
| 20260504042158 | 60 | 17 | 2.6 | 2.6 | 0.00 | 0.00 | 0.00 | 29 | 1010.7 |
| 20260504041654 | 60 | 320 | 1.7 | 1.7 | 0.00 | 0.00 | 0.00 | 29 | 1010.5 |
| 20260504041149 | 60 | 300 | 0.9 | 0.9 | 0.00 | 0.00 | 0.00 | 30 | 1010.4 |
| 20260504040647 | 60 | 299 | 0.0 | 0.9 | 0.00 | 0.00 | 0.00 | 30 | 1010.7 |
| 20260504040144 | 61 | 310 | 0.0 | 0.9 | 0.00 | 0.00 | 0.00 | 29 | 1010.3 |
| 20260504035640 | 61 | 313 | 1.7 | 1.7 | 0.00 | 0.00 | 0.00 | 29 | 1010.5 |
| 20260504035137 | 60 | 309 | 0.9 | 1.7 | 0.00 | 0.00 | 0.00 | 29 | 1010.7 |
| 20260504034635 | 61 | 306 | 0.9 | 0.9 | 0.00 | 0.00 | 0.00 | 29 | 1010.5 |
| 20260504034132 | 61 | 311 | 0.0 | 0.9 | 0.00 | 0.00 | 0.00 | 29 | 1010.7 |
| 20260504033630 | 61 | 290 | 0.0 | 0.9 | 0.00 | 0.00 | 0.00 | 29 | 1010.5 |
| 20260504033127 | 61 | 304 | 0.9 | 0.9 | 0.00 | 0.00 | 0.00 | 29 | 1010.5 |
| 20260504032624 | 61 | 338 | 0.9 | 0.9 | 0.00 | 0.00 | 0.00 | 29 | 1010.4 |
| 20260504032120 | 60 | 295 | 0.0 | 0.9 | 0.00 | 0.00 | 0.00 | 31 | 1010.5 |
| 20260504031618 | 57 | 187 | 0.0 | 0.0 | 0.00 | 0.00 | 0.00 | 37 | 1010.7 |
| 20260504031114 | 57 | 295 | 0.0 | 0.0 | 0.00 | 0.00 | 0.00 | 41 | 1010.4 |
| 20260504030611 | 57 | 245 | 0.0 | 0.0 | 0.00 | 0.00 | 0.00 | 42 | 1010.2 |
| 20260504030108 | 57 | 317 | 0.0 | 0.0 | 0.00 | 0.00 | 0.00 | 44 | 1010.5 |
| 20260504025604 | 58 | 257 | 0.0 | 0.0 | 0.00 | 0.00 | 0.00 | 44 | 1010.4 |
| 20260504025101 | 59 | 199 | 0.0 | 0.0 | 0.00 | 0.00 | 0.00 | 40 | 1010.3 |
| 20260504024558 | 59 | 198 | 0.0 | 0.0 | 0.00 | 0.00 | 0.00 | 36 | 1010.3 |
| 20260504024055 | 60 | 200 | 0.0 | 0.0 | 0.00 | 0.00 | 0.00 | 32 | 1010.2 |
| 20260504023551 | 61 | 206 | 0.0 | 0.0 | 0.00 | 0.00 | 0.00 | 32 | 1010.0 |
| 20260504023047 | 60 | 258 | 0.0 | 0.0 | 0.00 | 0.00 | 0.00 | 34 | 1010.3 |
| 20260504022543 | 61 | 288 | 0.0 | 0.0 | 0.00 | 0.00 | 0.00 | 33 | 1010.2 |
| 20260504022040 | 62 | 259 | 0.0 | 0.0 | 0.00 | 0.00 | 0.00 | 32 | 1010.3 |
| 20260504021537 | 63 | 200 | 0.0 | 0.0 | 0.00 | 0.00 | 0.00 | 31 | 1010.3 |
| 20260504021034 | 64 | 243 | 0.0 | 0.0 | 0.00 | 0.00 | 0.00 | 29 | 1010.0 |
| 20260504020531 | 64 | 288 | 0.0 | 0.0 | 0.00 | 0.00 | 0.00 | 28 | 1010.0 |
| 20260504020028 | 65 | 289 | 0.0 | 0.0 | 0.00 | 0.00 | 0.00 | 28 | 1010.1 |
| 20260504015524 | 65 | 244 | 0.0 | 0.0 | 0.00 | 0.00 | 0.00 | 28 | 1009.8 |
| 20260504015020 | 66 | 255 | 0.0 | 0.0 | 0.00 | 0.00 | 0.00 | 27 | 1010.0 |
| 20260504014516 | 66 | 284 | 0.0 | 0.9 | 0.00 | 0.00 | 0.00 | 26 | 1009.6 |
| 20260504014014 | 67 | 313 | 0.9 | 0.9 | 0.00 | 0.00 | 0.00 | 25 | 1010.0 |
| 20260504013512 | 67 | 301 | 0.9 | 0.9 | 0.00 | 0.00 | 0.00 | 26 | 1010.1 |
| 20260504013008 | 67 | 254 | 0.0 | 0.9 | 0.00 | 0.00 | 0.00 | 26 | 1010.0 |
| 20260504012506 | 68 | 279 | 0.9 | 0.9 | 0.00 | 0.00 | 0.00 | 25 | 1009.8 |
| 20260504012004 | 68 | 304 | 0.9 | 1.7 | 0.00 | 0.00 | 0.00 | 25 | 1010.0 |
| 20260504011500 | 68 | 266 | 0.0 | 0.0 | 0.00 | 0.00 | 0.00 | 25 | 1010.1 |
| 20260504010955 | 68 | 320 | 0.0 | 0.9 | 0.00 | 0.00 | 0.00 | 24 | 1010.1 |
| 20260504010452 | 69 | 166 | 0.0 | 0.9 | 0.00 | 0.00 | 0.00 | 24 | 1010.1 |
| 20260504005947 | 69 | 174 | 0.9 | 1.7 | 0.00 | 0.00 | 0.00 | 23 | 1010.2 |
| 20260504005445 | 69 | 215 | 2.6 | 4.3 | 0.00 | 0.00 | 0.00 | 23 | 1010.4 |
| 20260504004942 | 69 | 269 | 4.3 | 5.2 | 0.00 | 0.00 | 0.00 | 23 | 1010.2 |